Time,TemperatureF,DewpointF,PressureIn,WindDirection,WindDirectionDegrees,WindSpeedMPH,WindSpeedGustMPH,Humidity,HourlyPrecipIn,Conditions,Clouds,dailyrainin,SoftwareType,DateUTC
2013-03-03 00:04:00,27.5,25.7,30.03,NW,315,8.3,-999.0,93,-99.99,,,0.00,Acu-Link.com,2013-03-03 05:04:00,
2013-03-03 00:19:00,27.3,25.6,30.03,West,270,10.3,-999.0,93,-99.99,,,0.00,Acu-Link.com,2013-03-03 05:19:00,
2013-03-03 00:35:00,27.3,25.6,30.03,WNW,292,9.4,-999.0,93,-99.99,,,0.00,Acu-Link.com,2013-03-03 05:35:00,
2013-03-03 00:50:00,27.3,25.3,30.03,NW,315,7.8,-999.0,92,-99.99,,,0.00,Acu-Link.com,2013-03-03 05:50:00,
2013-03-03 01:05:00,27.3,25.3,30.03,WNW,292,9.4,-999.0,92,-99.99,,,0.00,Acu-Link.com,2013-03-03 06:05:00,
2013-03-03 01:20:00,27.1,25.1,30.03,West,270,8.9,-999.0,92,-99.99,,,0.00,Acu-Link.com,2013-03-03 06:20:00,
2013-03-03 01:35:00,27.0,25.0,30.03,NW,315,10.3,-999.0,92,-99.99,,,0.00,Acu-Link.com,2013-03-03 06:35:00,
2013-03-03 01:51:00,27.0,25.2,30.03,North,0,8.3,-999.0,93,-99.99,,,0.00,Acu-Link.com,2013-03-03 06:51:00,
2013-03-03 02:06:00,26.6,24.9,30.02,NNW,337,7.4,-999.0,93,-99.99,,,0.00,Acu-Link.com,2013-03-03 07:06:00,
2013-03-03 02:21:00,26.6,24.9,30.02,NW,315,9.8,-999.0,93,-99.99,,,0.00,Acu-Link.com,2013-03-03 07:21:00,
2013-03-03 02:36:00,26.6,24.9,30.02,West,270,6.7,-999.0,93,-99.99,,,0.00,Acu-Link.com,2013-03-03 07:36:00,
2013-03-03 02:51:00,26.4,24.7,30.02,WNW,292,5.8,-999.0,93,-99.99,,,0.00,Acu-Link.com,2013-03-03 07:51:00,
2013-03-03 03:07:00,26.1,24.3,30.01,NW,315,8.3,-999.0,93,-99.99,,,0.00,Acu-Link.com,2013-03-03 08:07:00,
2013-03-03 03:22:00,25.9,24.4,30.01,NW,315,10.3,-999.0,94,-99.99,,,0.00,Acu-Link.com,2013-03-03 08:22:00,
2013-03-03 03:37:00,25.5,24.0,30.01,West,270,7.4,-999.0,94,-99.99,,,0.00,Acu-Link.com,2013-03-03 08:37:00,
2013-03-03 03:52:00,25.3,23.9,30.01,West,270,4.7,-999.0,94,-99.99,,,0.00,Acu-Link.com,2013-03-03 08:52:00,
2013-03-03 04:18:00,25.3,23.9,30.01,NW,315,13.0,-999.0,94,-99.99,,,0.00,Acu-Link.com,2013-03-03 09:18:00,
2013-03-03 04:34:00,25.0,23.5,30.01,WNW,292,8.3,-999.0,94,-99.99,,,0.00,Acu-Link.com,2013-03-03 09:34:00,
2013-03-03 04:49:00,24.8,23.3,30.01,WNW,292,4.3,-999.0,94,-99.99,,,0.00,Acu-Link.com,2013-03-03 09:49:00,
2013-03-03 05:04:00,24.8,23.1,30.02,WNW,292,6.3,-999.0,93,-99.99,,,0.00,Acu-Link.com,2013-03-03 10:04:00,
2013-03-03 05:19:00,25.0,22.7,30.02,WNW,292,8.3,-999.0,91,-99.99,,,0.00,Acu-Link.com,2013-03-03 10:19:00,
2013-03-03 05:35:00,24.8,22.6,30.02,NW,315,6.3,-999.0,91,-99.99,,,0.00,Acu-Link.com,2013-03-03 10:35:00,
2013-03-03 05:50:00,24.8,22.6,30.02,SSE,157,5.1,-999.0,91,-99.99,,,0.00,Acu-Link.com,2013-03-03 10:50:00,
2013-03-03 06:05:00,24.8,22.8,30.02,NW,315,8.9,-999.0,92,-99.99,,,0.00,Acu-Link.com,2013-03-03 11:05:00,
2013-03-03 06:20:00,24.6,22.6,30.02,NW,315,6.3,-999.0,92,-99.99,,,0.00,Acu-Link.com,2013-03-03 11:20:00,
2013-03-03 06:35:00,24.8,23.1,30.02,West,270,7.8,-999.0,93,-99.99,,,0.00,Acu-Link.com,2013-03-03 11:35:00,
2013-03-03 06:51:00,24.8,22.6,30.02,NW,315,6.7,-999.0,91,-99.99,,,0.00,Acu-Link.com,2013-03-03 11:51:00,
2013-03-03 07:06:00,24.8,22.3,30.02,West,270,6.7,-999.0,90,-99.99,,,0.00,Acu-Link.com,2013-03-03 12:06:00,
2013-03-03 07:21:00,25.0,21.9,30.02,WNW,292,7.4,-999.0,88,-99.99,,,0.00,Acu-Link.com,2013-03-03 12:21:00,
2013-03-03 07:36:00,25.2,21.8,30.03,West,270,5.1,-999.0,87,-99.99,,,0.00,Acu-Link.com,2013-03-03 12:36:00,
2013-03-03 07:51:00,25.5,22.2,30.03,NW,315,6.7,-999.0,87,-99.99,,,0.00,Acu-Link.com,2013-03-03 12:51:00,
2013-03-03 08:07:00,25.5,21.9,30.03,NW,315,8.9,-999.0,86,-99.99,,,0.00,Acu-Link.com,2013-03-03 13:07:00,
2013-03-03 08:22:00,25.9,21.7,30.03,WNW,292,7.8,-999.0,84,-99.99,,,0.00,Acu-Link.com,2013-03-03 13:22:00,
2013-03-03 08:37:00,26.2,21.8,30.02,West,270,4.7,-999.0,83,-99.99,,,0.00,Acu-Link.com,2013-03-03 13:37:00,
2013-03-03 08:52:00,26.2,21.5,30.02,West,270,9.4,-999.0,82,-99.99,,,0.00,Acu-Link.com,2013-03-03 13:52:00,
2013-03-03 09:07:00,26.8,21.7,30.02,NW,315,7.8,-999.0,81,-99.99,,,0.00,Acu-Link.com,2013-03-03 14:07:00,
2013-03-03 09:23:00,27.5,22.2,30.02,West,270,5.8,-999.0,80,-99.99,,,0.00,Acu-Link.com,2013-03-03 14:23:00,
2013-03-03 09:38:00,28.4,22.4,30.02,NW,315,9.8,-999.0,78,-99.99,,,0.00,Acu-Link.com,2013-03-03 14:38:00,
2013-03-03 09:53:00,28.6,22.6,30.01,SW,225,4.3,-999.0,78,-99.99,,,0.00,Acu-Link.com,2013-03-03 14:53:00,
2013-03-03 10:08:00,28.9,22.7,30.01,NNW,337,6.7,-999.0,77,-99.99,,,0.00,Acu-Link.com,2013-03-03 15:08:00,
2013-03-03 10:24:00,29.5,23.2,30.01,West,270,8.3,-999.0,77,-99.99,,,0.00,Acu-Link.com,2013-03-03 15:24:00,
2013-03-03 10:39:00,30.9,23.6,30.00,ESE,112,4.3,-999.0,74,-99.99,,,0.00,Acu-Link.com,2013-03-03 15:39:00,
2013-03-03 10:54:00,31.6,24.3,30.00,NE,45,2.7,-999.0,74,-99.99,,,0.00,Acu-Link.com,2013-03-03 15:54:00,
2013-03-03 11:09:00,31.1,24.1,30.00,NW,315,12.5,-999.0,75,-99.99,,,0.00,Acu-Link.com,2013-03-03 16:09:00,
2013-03-03 11:24:00,31.3,24.0,30.00,SSE,157,2.2,-999.0,74,-99.99,,,0.00,Acu-Link.com,2013-03-03 16:24:00,
2013-03-03 11:40:00,31.1,24.1,30.00,NW,315,6.3,-999.0,75,-99.99,,,0.00,Acu-Link.com,2013-03-03 16:40:00,
2013-03-03 11:55:00,31.6,25.0,30.00,West,270,2.2,-999.0,76,-99.99,,,0.00,Acu-Link.com,2013-03-03 16:55:00,
2013-03-03 12:10:00,32.9,25.2,29.99,WNW,292,9.4,-999.0,73,-99.99,,,0.00,Acu-Link.com,2013-03-03 17:10:00,
2013-03-03 12:25:00,32.9,25.2,29.98,NNE,22,4.3,-999.0,73,-99.99,,,0.00,Acu-Link.com,2013-03-03 17:25:00,
2013-03-03 12:40:00,33.3,25.6,29.98,WNW,292,5.8,-999.0,73,-99.99,,,0.00,Acu-Link.com,2013-03-03 17:40:00,
2013-03-03 12:55:00,32.5,25.5,29.98,NW,315,5.1,-999.0,75,-99.99,,,0.00,Acu-Link.com,2013-03-03 17:55:00,
2013-03-03 13:11:00,32.7,26.0,29.97,NW,315,6.3,-999.0,76,-99.99,,,0.00,Acu-Link.com,2013-03-03 18:11:00,
2013-03-03 13:26:00,32.2,25.8,29.97,West,270,7.4,-999.0,77,-99.99,,,0.00,Acu-Link.com,2013-03-03 18:26:00,
2013-03-03 13:41:00,32.5,26.5,29.97,SW,225,9.4,-999.0,78,-99.99,,,0.00,Acu-Link.com,2013-03-03 18:41:00,
2013-03-03 13:56:00,32.2,27.0,29.97,SSE,157,2.2,-999.0,81,-99.99,,,0.00,Acu-Link.com,2013-03-03 18:56:00,
2013-03-03 14:11:00,31.1,27.7,29.97,West,270,9.4,-999.0,87,-99.99,,,0.00,Acu-Link.com,2013-03-03 19:11:00,
2013-03-03 14:27:00,31.3,28.1,29.97,WNW,292,7.4,-999.0,88,-99.99,,,0.00,Acu-Link.com,2013-03-03 19:27:00,
2013-03-03 14:42:00,30.4,27.8,29.97,West,270,7.8,-999.0,90,-99.99,,,0.00,Acu-Link.com,2013-03-03 19:42:00,
2013-03-03 14:57:00,30.2,27.9,29.97,West,270,4.7,-999.0,91,-99.99,,,0.00,Acu-Link.com,2013-03-03 19:57:00,
2013-03-03 15:12:00,30.6,27.2,29.97,North,0,5.8,-999.0,87,-99.99,,,0.00,Acu-Link.com,2013-03-03 20:12:00,
2013-03-03 15:27:00,30.7,27.3,29.97,WNW,292,6.3,-999.0,87,-99.99,,,0.00,Acu-Link.com,2013-03-03 20:27:00,
2013-03-03 15:43:00,30.9,27.8,29.97,West,270,12.5,-999.0,88,-99.99,,,0.00,Acu-Link.com,2013-03-03 20:43:00,
2013-03-03 15:58:00,31.1,26.8,29.97,WNW,292,7.4,-999.0,84,-99.99,,,0.00,Acu-Link.com,2013-03-03 20:58:00,
2013-03-03 16:13:00,30.2,26.2,29.97,WNW,292,10.3,-999.0,85,-99.99,,,0.00,Acu-Link.com,2013-03-03 21:13:00,
2013-03-03 16:37:00,29.5,26.9,29.97,NW,315,6.7,-999.0,90,-99.99,,,0.00,Acu-Link.com,2013-03-03 21:37:00,
2013-03-03 16:52:00,28.9,26.4,29.98,NW,315,7.4,-999.0,90,-99.99,,,0.00,Acu-Link.com,2013-03-03 21:52:00,
2013-03-03 17:07:00,28.8,27.0,29.98,NW,315,5.8,-999.0,93,-99.99,,,0.00,Acu-Link.com,2013-03-03 22:07:00,
2013-03-03 17:23:00,28.6,26.8,29.98,NW,315,7.8,-999.0,93,-99.99,,,0.00,Acu-Link.com,2013-03-03 22:23:00,
2013-03-03 17:38:00,28.0,26.8,29.98,WNW,292,4.3,-999.0,95,-99.99,,,0.00,Acu-Link.com,2013-03-03 22:38:00,
2013-03-03 17:53:00,27.5,26.5,29.99,NW,315,7.8,-999.0,96,-99.99,,,0.00,Acu-Link.com,2013-03-03 22:53:00,
2013-03-03 18:08:00,27.5,26.3,29.99,West,270,8.3,-999.0,95,-99.99,,,0.00,Acu-Link.com,2013-03-03 23:08:00,
2013-03-03 18:23:00,27.9,25.6,29.99,West,270,8.9,-999.0,91,-99.99,,,0.00,Acu-Link.com,2013-03-03 23:23:00,
2013-03-03 18:39:00,27.9,25.3,29.99,NW,315,6.7,-999.0,90,-99.99,,,0.00,Acu-Link.com,2013-03-03 23:39:00,
2013-03-03 18:54:00,28.0,25.0,30.00,NW,315,8.9,-999.0,88,-99.99,,,0.00,Acu-Link.com,2013-03-03 23:54:00,
2013-03-03 19:09:00,27.9,25.6,30.00,WNW,292,15.4,-999.0,91,-99.99,,,0.00,Acu-Link.com,2013-03-04 00:09:00,
2013-03-03 19:24:00,27.7,25.1,30.00,West,270,7.4,-999.0,90,-99.99,,,0.00,Acu-Link.com,2013-03-04 00:24:00,
2013-03-03 19:40:00,27.7,25.4,30.00,WNW,292,8.3,-999.0,91,-99.99,,,0.00,Acu-Link.com,2013-03-04 00:40:00,
2013-03-03 19:55:00,27.5,25.0,30.01,NW,315,5.8,-999.0,90,-99.99,,,0.00,Acu-Link.com,2013-03-04 00:55:00,
2013-03-03 20:10:00,27.7,24.3,30.01,NW,315,9.4,-999.0,87,-99.99,,,0.00,Acu-Link.com,2013-03-04 01:10:00,
2013-03-03 20:25:00,27.7,24.3,30.02,West,270,9.4,-999.0,87,-99.99,,,0.00,Acu-Link.com,2013-03-04 01:25:00,
2013-03-03 20:40:00,27.5,23.9,30.02,WNW,292,8.9,-999.0,86,-99.99,,,0.00,Acu-Link.com,2013-03-04 01:40:00,
2013-03-03 20:56:00,27.3,23.4,30.02,WNW,292,4.7,-999.0,85,-99.99,,,0.00,Acu-Link.com,2013-03-04 01:56:00,
2013-03-03 21:11:00,27.0,23.1,30.02,WNW,292,10.3,-999.0,85,-99.99,,,0.00,Acu-Link.com,2013-03-04 02:11:00,
2013-03-03 21:26:00,27.0,23.1,30.02,NNW,337,9.4,-999.0,85,-99.99,,,0.00,Acu-Link.com,2013-03-04 02:26:00,
2013-03-03 21:41:00,27.0,23.1,30.02,NW,315,12.5,-999.0,85,-99.99,,,0.00,Acu-Link.com,2013-03-04 02:41:00,
2013-03-03 21:56:00,27.0,23.1,30.02,WNW,292,11.9,-999.0,85,-99.99,,,0.00,Acu-Link.com,2013-03-04 02:56:00,
2013-03-03 22:12:00,26.8,22.9,30.02,West,270,6.7,-999.0,85,-99.99,,,0.00,Acu-Link.com,2013-03-04 03:12:00,
2013-03-03 22:27:00,26.8,22.9,30.02,SSW,202,4.7,-999.0,85,-99.99,,,0.00,Acu-Link.com,2013-03-04 03:27:00,
2013-03-03 22:42:00,26.4,22.5,30.02,NW,315,13.4,-999.0,85,-99.99,,,0.00,Acu-Link.com,2013-03-04 03:42:00,
2013-03-03 22:57:00,26.2,22.1,30.02,NW,315,16.1,-999.0,84,-99.99,,,0.00,Acu-Link.com,2013-03-04 03:57:00,
2013-03-03 23:13:00,26.1,21.9,30.02,NW,315,14.5,-999.0,84,-99.99,,,0.00,Acu-Link.com,2013-03-04 04:13:00,
2013-03-03 23:28:00,25.9,21.7,30.02,West,270,13.0,-999.0,84,-99.99,,,0.00,Acu-Link.com,2013-03-04 04:28:00,
2013-03-03 23:43:00,25.7,21.5,30.02,West,270,7.4,-999.0,84,-99.99,,,0.00,Acu-Link.com,2013-03-04 04:43:00,
2013-03-03 23:58:00,25.5,21.4,30.02,NW,315,15.4,-999.0,84,-99.99,,,0.00,Acu-Link.com,2013-03-04 04:58:00,